User: anonymous   Login
Location: ???? ?????????
(31.1304°N, 31.7111°E)
Time: 19:32:01
(UTC+00:00)
Language:

Atlas Centaur 2 - Orbit

View from above orbital plane
View from above orbital plane
View from above satellite
View from above satellite

Ground track
Ground track

The orbit data is extracted from the following two-line orbital elements,

1   694U 63047A   21026.38424015  .00000582  00000-0  62222-4 0  9990
2   694  30.3590 103.2469 0585378 322.5516  33.5634 14.02746772868046
Epoch (UTC): 26 January 2021 09:13:18
Eccentricity: 0.0585378
inclination: 30.3590°
perigee height: 459 km
apogee height: 1309 km
right ascension of ascending node: 103.2469°
argument of perigee: 322.5516°
revolutions per day: 14.02746772
mean anomaly at epoch: 33.5634°
orbit number at epoch: 86804

The dashed part of the orbit path shows where the satellite is in the earth's shadow,  

DLR